#timestamp,LO_Frequency,Hit,StdDev 
1642672815.4,286047002.3,N
1642672835.2,286047000.1,N
1642672855.0,286047000.2,N
1642672855.9,286047000.2,N
1642672875.8,286047002.3,N
1642672895.6,286047002.2,N
1642672915.5,286047005.9,Y
1642672935.3,286047004.7,P
1642672955.1,286047005.0,P
1642672975.9,286047003.3,N
1642672995.7,286047003.2,N
1642673015.5,286047003.2,N
1642673035.4,286047003.9,Y
1642673055.2,286047000.8,P
1642673075.1,286047000.5,N
1642673076.0,286047000.5,N
1642673095.8,286047001.1,N
1642673115.6,286047001.2,N
1642673135.5,286046999.0,N
1642673155.3,286046997.5,N
1642673175.1,286046997.2,N
1642673195.9,286046997.9,N
1642673215.7,286046995.4,N
1642673235.6,286046996.2,N
1642673255.4,286046995.4,N
1642673275.2,286046995.5,N
1642673295.1,286046995.8,N
1642673296.0,286046995.8,N
1642673315.8,286046996.6,N
1642673335.6,286046999.5,N
1642673355.5,286046998.4,N
1642673375.3,286046996.6,N
1642673395.2,286046997.1,N
1642673415.9,286046996.5,N
1642673435.7,286046996.9,N
1642673455.6,286046997.5,N
1642673475.4,286046997.8,N
1642673495.2,286046996.5,N
1642673515.1,286046996.7,N
1642673516.0,286046996.7,N
1642673535.8,286046998.7,N
1642673555.7,286046998.2,N
1642673575.5,286047001.2,N
1642673595.3,286046998.5,N
1642673615.2,286047001.2,N
1642673635.0,286046998.5,N
1642673635.9,286046998.5,N
1642673655.7,286046997.7,N
1642673675.6,286046997.2,N
1642673695.4,286046995.1,Y
1642673715.3,286046999.1,P
1642673735.1,286046998.4,N
1642673755.8,286046999.4,N
1642673775.7,286046996.9,Y
1642673795.5,286046998.5,P
1642673815.4,286047000.3,P
1642673835.2,286047000.1,N
1642673855.0,286047002.7,Y
1642673855.9,286047002.7,P
1642673875.8,286047005.5,P
1642673895.6,286047004.1,N
1642673915.4,286046999.8,N
1642673935.3,286047000.1,N
1642673955.1,286047000.1,N
1642674005.9,286047000.1,E
1642674015.8,286046999.8,N
1642674035.6,286046998.3,P
1642674055.5,286046997.3,P
1642674075.3,286046997.0,N
1642674095.2,286047000.8,N
1642674115.9,286047000.9,N
1642674135.7,286046999.7,N
1642674155.6,286046998.3,N
1642674175.4,286046997.4,N
1642674195.2,286046996.7,N
1642674215.1,286046998.3,N
1642674216.0,286046998.3,N
1642674235.8,286046998.2,N
1642674255.6,286046999.5,N
1642674275.5,286046999.6,N
1642674295.3,286046997.0,N
1642674315.2,286046994.9,Y
1642674335.9,286046999.2,P
1642674355.8,286047001.0,P
1642674375.6,286047002.5,N
1642674395.4,286047000.9,N
1642674415.3,286046999.0,N
1642674435.1,286046998.8,N
1642674455.9,286047000.8,N
1642674475.7,286047001.2,N
1642674495.5,286047002.2,N
1642674515.4,286047004.3,Y
1642674535.2,286047001.3,P
1642674555.0,286047004.2,P
1642674555.9,286047004.2,N
1642674575.8,286047003.9,N
1642674595.6,286047003.9,N
1642674615.5,286047002.0,N
1642674635.3,286047002.2,N
1642674655.1,286047001.5,N
1642674675.9,286047004.3,Y
1642674695.7,286047002.8,P
1642674715.5,286047002.8,P
1642674735.4,286047002.4,P
1642674755.2,286047002.7,Y
1642674775.1,286046998.7,P
1642674776.0,286046998.7,N
1642674795.8,286046999.2,N
1642674815.6,286046999.6,N
1642674835.5,286046999.3,N
1642674855.3,286046998.8,N
1642674875.2,286046997.8,N
1642674895.9,286046997.1,N
1642674915.7,286046996.1,N
1642674935.6,286046996.1,N
1642674955.4,286046995.2,N
1642674975.2,286046996.7,N
1642674995.1,286046997.5,N
1642674996.0,286046997.5,N
1642675015.8,286046996.1,N
1642675035.7,286046996.2,N
1642675055.5,286046995.5,N
1642675075.3,286046994.9,N
1642675095.2,286046997.9,N
1642675115.0,286046997.8,N
1642675115.9,286046997.8,N
1642675135.8,286046999.6,N
1642675155.6,286046997.3,N
1642675175.4,286046996.8,N
1642675195.3,286046997.4,N
1642675215.1,286046997.1,N
1642675235.8,286046997.8,N
1642675255.7,286046996.6,N
1642675275.5,286046998.7,N
1642675295.4,286046999.1,N
1642675315.2,286046999.1,N
1642675335.0,286046998.6,N
1642675335.9,286046998.6,N
1642675355.8,286047000.3,N
1642675375.6,286046999.6,N
1642675395.5,286046998.3,N
1642675415.4,286047000.5,N
1642675435.2,286046999.3,N
1642675455.0,286046997.2,N
1642675455.9,286046997.2,N
1642675475.8,286046999.0,N
1642675495.6,286046998.6,N
1642675515.5,286046998.3,N
1642675535.3,286046997.2,N
1642675555.1,286046996.9,N
1642675575.9,286046996.7,N
1642675595.7,286046997.0,N
1642675615.5,286046996.7,N
1642675635.4,286046997.5,N
1642675655.2,286046997.5,N
1642675675.1,286046997.2,N
1642675676.0,286046997.2,N
1642675695.8,286046994.9,Y
1642675715.6,286046999.2,P
1642675735.5,286046997.5,P
1642675755.3,286046997.4,P
1642675775.2,286046997.5,Y
1642675795.9,286046998.7,P
1642675815.7,286046998.1,P
1642675835.6,286047000.7,N
1642675855.4,286047000.9,N
1642675875.2,286047002.5,N
1642675895.1,286047000.7,N
1642675896.0,286047000.7,N
1642675915.8,286046999.0,N
1642675935.7,286047000.5,N
1642675955.5,286047000.8,N
1642675975.3,286047000.1,N
1642675995.2,286047000.1,N
1642676015.0,286047002.7,N
1642676015.9,286047002.7,N
1642676035.7,286047000.3,N
1642676055.6,286047000.1,N
1642676075.4,286047001.0,N
1642676095.3,286047001.2,N
1642676115.1,286047000.3,N
1642676135.8,286047000.7,N
1642676155.7,286046999.0,N
1642676175.5,286046998.8,N
1642676195.3,286047001.1,N
1642676215.2,286046998.6,N
1642676235.0,286046998.5,N
1642676235.9,286046998.5,N
1642676255.8,286046998.2,N
1642676275.6,286047000.5,N
1642676295.5,286047000.5,N
1642676315.3,286047000.2,N
1642676335.1,286047013.2,Y
1642676355.9,286047015.6,P
1642676375.7,286047010.0,N
1642676395.5,286047008.4,N
